Orbital Elements at Epoch 2459000.5 (2020-May-31.0) TDB
Reference: JPL 18 (heliocentric ecliptic J2000)
Element | Value | Uncertainty (1-sigma) | Units |
e | .02674467554376528 | 4.3581e-08 | |
a | 2.720079048573403 | 1.8498e-08 | au |
q | 2.647331416965913 | 1.1919e-07 | au |
i | 6.463179700596647 | 5.7224e-06 | deg |
node | 326.647740081209 | 3.9228e-05 | deg |
peri | 250.6198191556717 | 0.00011 | deg |
M | 316.6097865596369 | 0.00010287 | deg |
tp | 2459197.996771484666 (2020-Dec-14.49677148) | 0.00046838 | TDB |
period | 1638.591564713096 4.49 | 1.6715e-05 4.576e-08 | d yr |
n | .2197008746734475 | 2.2412e-09 | deg/d |
Q | 2.792826680180892 | 1.8993e-08 | au |
|
| | Orbit Determination Parameters
Additional Information
|